CONNECTA T2.1 (56210 NORAD) Tracking and Keplerian Element Data

This shows tracking and keplerian element data for the satellite.

Feedback or suggestion? Click here.




ElementValue
Catalog56210
NameCONNECTA T2.1
Epoch Orbit383
Epoch Day126.50531639
Epoch Year2023
RAAN22.0506
Inclination97.4044
Eccentricity0.0014991
Argument of Perigee145.1325
Mean Anonmoly339.7192
Mean Motion15.23025163
Decay Rate5.73E-05
L11 56210U 23054AJ 23126.50531639 .00005730 00000+0 24576-3 0 9995
L22 56210 97.4044 22.0506 0014991 145.1325 339.7192 15.23025163 3830



Live tracking and technical data element details for CONNECTA T2.1 (NORAD 56210). CONNECTA T2.1 can be tracked NOW for your location showing map with azimuth and elevation plus other details from your city location.







IsCatalogInMostPopularTable: catalog: 56210, numindb: 7
Update: records affected: 1



GetName: 56210 CONNECTA T2.1

Hit Count: updated at: Wed, 07 Jun 2023 09:43:11 GMT